User: anonymous   Login
Location: Columbia
(38.9520°N, 92.3340°W)
Time: 16:02:49
(UTC-05:00)
Language:

Cosmos 158 Rocket - Orbit

View from above orbital plane
View from above orbital plane
View from above satellite
View from above satellite

Ground track
Ground track

The orbit data is extracted from the following two-line orbital elements,

1 02802U 67045B   18113.52310715 -.00000017  00000-0  34478-5 0  9992
2 02802  74.0106 308.9585 0067431 288.5192  70.8645 14.43690745673768
Epoch (UTC): 23 April 2018 12:33:16
Eccentricity: 0.0067431
inclination: 74.0106°
perigee height: 698 km
apogee height: 794 km
right ascension of ascending node: 308.9585°
argument of perigee: 288.5192°
revolutions per day: 14.43690745
mean anomaly at epoch: 70.8645°
orbit number at epoch: 67376

The dashed part of the orbit path shows where the satellite is in the earth's shadow,  

DLR